Theta_e
312 313 315 317 320 317 318 319 318 326 326 323 317 319 319 322 322 325 321 319 319 319 321 321 322 325 326 329 320 317 314 313 317 318 318 320 320 323 318 320 323 329 332 335
312 314 315 317 318 318 316 319 323 326 327 322 321 320 323 323 324 321 322 322 322 321 321 323 322 325 327 331 331 320 316 314 317 318 317 319 322 323 321 317 318 331 335 334
313 314 315 317 317 320 315 322 323 330 327 325 324 327 328 328 329 325 325 322 321 318 320 320 324 325 327 332 332 323 319 311 316 319 319 320 323 322 322 320 320 322 327 329
313 314 316 317 318 320 319 324 324 327 326 326 326 326 328 329 329 327 328 325 329 322 321 321 322 326 330 331 331 329 317 318 318 318 319 321 322 324 320 321 320 323 322 332
312 315 316 317 319 319 325 326 325 326 326 327 327 325 327 328 330 328 330 331 330 320 324 324 330 330 330 332 328 328 322 326 322 323 326 324 335 338 334 329 342 325 327 329
313 315 316 318 319 319 321 323 324 325 326 324 327 327 328 330 328 329 330 331 328 329 329 330 329 330 329 329 329 328 327 326 324 328 325 324 323 338 339 337 339 340 338 333
314 314 317 318 319 320 316 320 323 324 324 324 326 325 326 327 327 328 329 329 328 329 329 328 327 326 326 327 326 325 326 326 323 326 324 329 324 333 337 340 337 336 337 337
314 313 316 317 318 320 319 321 321 322 321 323 323 324 324 325 326 327 328 329 329 330 326 323 324 324 326 328 328 326 323 324 326 328 325 325 334 333 334 338 341 337 338 338
315 314 316 318 318 320 321 319 320 320 321 318 323 322 322 323 324 325 328 329 330 331 320 325 326 327 328 331 332 326 325 321 326 325 330 331 332 334 333 333 341 338 337 337
316 315 316 317 318 319 320 319 320 320 321 319 320 322 322 324 324 323 325 326 328 329 322 324 324 325 332 334 335 334 330 327 333 333 333 331 332 333 334 341 341 336 337 337
315 316 316 316 317 318 319 320 320 321 321 320 321 321 321 320 321 324 326 326 327 327 328 329 330 334 332 332 333 334 331 330 335 332 336 334 331 332 333 333 335 337 336 336
314 314 316 316 316 317 317 318 318 319 318 320 321 320 320 320 320 323 322 324 324 327 326 325 327 334 329 328 334 329 333 329 332 331 330 328 333 331 333 333 335 336 335 335
313 313 314 315 316 317 317 317 318 320 319 319 318 320 320 321 321 321 321 321 323 327 326 325 329 333 327 330 328 330 329 329 330 329 325 328 329 332 332 332 331 336 336 336
313 313 313 314 317 318 317 318 318 319 319 319 319 320 319 319 319 321 322 323 324 324 324 324 322 328 329 328 326 327 327 328 327 327 326 328 329 329 329 332 329 331 336 336
313 313 312 313 316 317 317 318 318 318 318 317 318 319 321 320 320 321 321 321 322 322 323 319 321 323 328 324 325 326 328 326 327 326 326 326 328 329 330 331 331 330 335 336
313 312 312 313 317 318 318 318 319 320 319 318 321 319 321 323 324 322 323 324 321 322 323 322 325 326 327 327 329 327 330 330 330 328 329 330 330 330 331 330 331 332 334 332
312 312 312 313 317 318 318 318 319 319 319 319 320 318 320 324 325 326 325 322 324 324 325 323 325 325 324 320 326 324 328 328 329 326 328 329 330 331 331 331 332 334 331 331
311 312 312 314 317 317 318 318 319 319 320 319 320 317 319 323 323 325 324 324 325 326 326 324 323 324 323 323 323 326 326 326 326 325 325 325 327 331 331 331 330 331 332 333
310 312 314 315 316 316 317 318 318 318 319 319 320 320 321 320 319 321 327 325 321 324 320 320 323 321 324 323 325 327 327 327 327 327 326 326 326 326 333 334 333 332 331 332
311 313 315 315 317 317 317 317 317 318 318 318 318 318 317 318 319 321 323 325 325 324 323 323 321 324 325 326 326 326 326 326 327 327 327 329 329 329 333 332 332 333 335 336
313 314 315 316 317 317 317 318 317 317 317 317 317 317 318 318 317 319 322 325 326 331 327 325 324 325 323 329 328 326 326 327 327 327 328 329 330 329 329 331 334 334 336 336
313 314 315 315 316 316 318 318 317 317 317 317 317 318 317 318 319 319 322 327 324 329 325 327 329 322 326 327 330 332 336 335 331 329 330 329 330 329 331 335 335 337 338 338
314 315 316 316 315 315 317 319 319 318 317 318 320 322 322 321 320 319 320 327 328 326 327 329 326 325 326 327 330 332 334 335 333 330 330 330 330 335 337 337 339 339 339 339
314 315 311 316 317 316 316 314 313 317 319 319 319 321 324 325 325 324 327 323 324 330 331 329 324 323 325 326 328 331 333 334 334 332 331 331 336 337 338 340 340 338 339 340
315 314 315 315 315 316 316 316 316 317 317 318 318 321 323 322 325 324 327 328 329 328 330 326 323 323 323 324 325 327 330 332 333 334 335 336 336 339 339 340 340 337 339 340
313 314 315 315 314 314 315 316 316 316 318 320 321 322 321 321 322 326 327 329 330 331 329 324 323 322 322 323 326 326 328 331 333 334 335 336 338 338 338 339 340 338 338 340
313 313 314 314 314 314 316 317 318 318 318 318 319 323 324 321 324 327 324 325 326 326 325 323 321 320 320 320 323 326 326 327 333 331 333 332 336 337 338 338 340 339 342 340
Wind_Speed
15 16 17 18 19 19 14 7 2 9 14 2 2 2 5 4 8 18 8 4 9 6 3 2 2 1 4 14 4 8 10 5 6 12 5 3 3 2 5 5 6 2 4 6
12 14 14 15 17 17 18 11 4 7 12 1 2 5 5 7 4 6 4 5 6 4 3 2 3 2 7 14 7 4 6 2 3 10 7 4 2 3 4 3 4 6 6 6
13 11 12 13 14 13 14 5 3 3 6 1 2 3 5 6 11 8 7 7 4 5 4 2 3 3 4 12 7 5 6 3 7 8 5 3 1 2 2 4 3 3 6 6
12 9 11 13 12 10 7 5 2 4 3 3 3 1 3 7 7 6 9 3 6 3 2 2 1 2 5 5 12 7 5 3 1 0 5 4 4 6 4 4 3 4 6 9
12 8 10 12 10 8 5 4 5 7 5 8 5 3 4 4 8 4 7 4 9 4 4 2 1 1 1 1 7 7 6 2 3 2 4 5 5 10 7 7 5 4 6 7
11 8 10 11 10 7 3 4 3 3 5 5 2 2 5 6 11 8 9 8 4 6 7 9 8 8 6 4 2 3 3 3 4 3 5 5 6 6 3 4 2 2 5 6
10 9 9 10 10 7 6 5 4 3 4 2 2 6 7 9 11 4 13 11 5 11 23 10 6 1 7 9 7 0 5 5 2 2 4 2 5 4 1 6 5 4 3 10
11 9 8 8 10 5 4 2 3 2 3 4 9 10 6 15 21 3 6 16 15 21 7 3 4 5 5 5 5 8 2 4 3 2 2 1 2 4 4 4 1 4 8 14
10 9 8 7 8 7 3 2 2 3 6 4 1 7 12 4 5 7 6 21 14 16 2 2 3 3 3 2 6 3 5 7 4 2 3 5 4 6 8 6 2 2 4 8
10 9 8 8 8 7 4 2 5 4 4 12 10 1 3 7 4 3 7 14 11 14 4 3 1 2 2 2 0 3 4 4 4 2 2 5 5 6 5 2 6 10 10 14
10 9 9 8 8 8 6 3 8 7 6 25 28 23 13 13 8 3 8 9 5 6 5 3 2 1 1 1 2 2 3 4 3 3 2 5 10 1 7 6 5 5 7 8
10 10 10 9 8 9 10 5 9 13 12 22 29 31 36 38 31 15 3 3 3 4 3 1 1 1 1 1 2 2 3 5 3 7 5 3 5 5 5 7 6 7 9 7
10 11 11 10 9 9 11 12 7 10 13 30 15 6 12 6 7 16 12 7 6 5 1 4 2 2 4 2 5 2 3 4 2 3 4 5 12 19 18 17 19 13 13 8
11 11 11 9 9 8 7 9 8 10 7 6 9 6 30 29 24 17 24 24 10 5 10 4 2 2 8 3 3 3 4 3 3 5 11 19 18 20 25 23 18 25 22 21
11 10 10 8 7 5 8 9 11 10 7 5 17 36 2 15 11 22 24 23 26 18 3 3 3 3 4 1 0 4 9 7 5 6 11 8 16 11 10 14 29 31 25 22
11 10 8 7 6 6 6 2 2 2 9 6 4 13 12 14 3 16 19 22 27 14 8 7 7 16 5 3 4 6 18 21 22 14 19 14 19 23 24 18 15 19 22 18
10 10 8 7 6 7 5 2 2 5 4 4 6 8 8 19 9 9 19 23 20 17 10 8 8 7 10 2 10 2 12 20 21 24 24 24 26 24 18 16 18 19 18 21
8 8 8 6 6 7 9 9 11 4 4 4 3 5 10 15 8 5 5 15 17 11 10 4 5 5 5 6 9 16 28 33 38 42 37 32 26 25 24 24 20 20 24 25
6 4 2 3 3 3 4 6 5 9 8 3 3 3 4 14 11 6 4 1 2 5 3 5 6 4 6 7 11 16 23 24 27 24 26 27 27 25 16 8 8 10 14 13
3 3 1 3 3 5 8 3 2 3 4 5 4 3 4 13 7 5 5 2 3 2 5 6 4 7 28 34 35 34 31 31 29 18 20 20 21 19 17 13 10 8 7 8
5 4 3 4 5 3 2 2 3 3 3 6 6 11 6 6 3 3 4 2 2 2 4 5 3 3 7 23 22 32 42 40 36 37 31 27 23 23 21 17 12 11 10 9
8 4 3 2 2 3 3 3 3 3 4 5 5 7 11 6 8 3 4 3 0 5 2 3 2 3 24 27 31 30 29 22 28 31 28 26 24 23 20 15 15 13 12 12
8 5 2 3 4 3 5 5 3 3 4 6 5 3 5 5 9 6 2 4 5 4 1 2 2 14 28 32 36 35 31 24 15 20 22 19 19 15 13 14 15 15 16 17
6 6 3 4 5 5 5 5 4 7 5 6 11 8 3 4 3 2 2 4 1 2 2 1 3 20 26 29 30 34 33 30 22 19 15 14 13 11 11 13 16 16 16 18
6 6 5 7 10 10 8 13 14 15 16 20 14 8 6 3 3 2 3 3 4 1 2 2 13 21 24 27 29 24 27 25 26 25 11 10 11 10 10 13 11 12 14 20
5 7 5 8 2 10 18 19 23 20 15 9 7 3 2 5 3 3 5 2 3 2 2 4 12 18 22 23 21 18 18 21 17 22 18 12 11 10 12 11 10 7 13 19
6 8 15 14 7 9 8 7 7 2 4 1 1 3 5 0 3 4 5 4 2 7 4 2 11 19 23 24 21 19 17 17 12 14 24 27 16 10 11 10 6 4 5 15
Wind_Direction
318 319 324 329 333 343 338 354 22 141 151 69 60 163 200 298 296 299 244 240 199 239 203 282 267 197 220 324 170 176 199 163 223 224 264 289 193 11 135 137 244 258 147 265
323 322 329 334 342 352 357 345 317 179 192 85 319 304 288 251 276 250 225 254 223 211 214 34 230 266 288 319 19 248 183 220 271 320 349 359 94 173 143 137 89 202 140 255
336 336 338 344 351 359 356 1 21 40 195 250 118 359 290 314 299 262 243 259 215 174 197 198 276 321 291 329 359 77 130 133 164 204 194 161 22 335 107 108 110 181 221 269
344 349 348 349 353 360 1 15 15 11 312 345 340 264 323 327 349 316 333 337 357 242 292 23 34 272 320 328 350 3 86 72 356 111 145 172 48 3 338 193 217 164 274 209
353 2 353 352 360 7 37 29 11 351 301 311 323 352 2 317 335 265 308 18 325 77 86 155 264 236 122 356 324 6 355 31 343 35 339 56 76 33 43 49 341 304 304 249
2 4 355 355 8 17 34 13 2 336 313 338 21 46 331 318 342 303 298 312 339 22 358 314 271 257 241 217 279 340 46 88 35 312 357 29 21 336 16 133 281 244 4 305
356 353 350 350 3 23 25 20 13 9 287 326 347 339 323 331 316 258 290 354 17 320 317 300 253 256 58 95 31 23 137 109 102 257 24 60 211 218 275 156 115 84 291 310
348 345 343 346 350 9 11 39 19 3 286 319 303 356 321 322 323 305 287 350 329 336 330 53 24 350 15 25 44 25 53 123 88 139 128 17 21 241 241 195 201 61 332 327
345 344 342 337 338 340 348 210 358 297 306 253 236 324 297 299 320 332 296 342 0 6 83 81 121 221 263 323 336 52 52 69 111 94 138 215 181 271 293 172 344 60 338 319
328 328 329 329 326 324 326 210 240 268 276 275 268 239 315 311 359 285 300 337 331 6 37 55 114 235 244 188 136 327 359 5 101 115 175 282 235 267 344 123 222 300 338 333
324 319 312 311 314 316 318 212 249 256 258 279 275 268 248 264 272 242 320 348 352 3 57 58 319 39 302 56 242 215 185 142 194 88 139 288 200 273 168 206 215 271 313 327
317 317 312 300 297 299 300 297 241 268 282 268 284 281 274 271 264 257 282 261 325 266 96 149 164 6 348 142 257 50 275 186 198 181 223 240 214 273 217 206 207 219 235 238
310 313 310 307 297 294 292 299 295 295 293 301 285 267 293 267 236 245 226 243 213 234 248 159 196 169 135 211 244 224 257 172 219 2 291 253 276 251 261 262 265 250 230 207
302 307 308 306 302 312 308 306 303 287 295 282 292 273 292 286 267 234 230 233 222 253 298 340 224 220 186 220 221 197 214 135 186 269 284 288 289 280 265 252 266 267 257 255
300 302 303 299 299 305 306 292 288 267 258 278 291 310 4 335 244 225 229 231 240 252 237 186 232 199 144 223 76 237 188 189 169 222 248 237 275 314 311 271 247 251 256 272
300 299 294 292 278 281 308 306 358 333 261 291 302 308 317 4 304 210 212 219 229 215 198 218 225 251 198 192 239 232 220 230 234 244 285 277 287 295 302 282 260 245 252 266
298 294 290 281 267 262 233 231 278 315 305 271 294 289 299 356 335 211 215 214 209 211 209 213 221 225 188 188 252 211 250 255 255 269 277 280 286 283 303 307 272 265 261 269
297 287 283 276 271 269 267 264 250 271 287 263 279 279 311 0 349 327 211 196 207 221 221 193 183 195 194 251 274 260 262 261 263 268 271 273 289 288 292 301 285 270 266 275
279 271 272 295 264 264 280 307 273 249 233 258 260 295 293 346 356 311 305 231 175 228 186 220 184 191 225 230 243 255 263 253 262 268 263 265 269 278 281 301 314 290 283 275
235 159 203 246 235 268 286 279 235 227 222 239 257 251 276 322 332 300 326 293 236 190 239 151 172 242 246 254 260 267 270 278 287 273 277 282 275 261 251 260 270 281 276 289
163 187 224 238 271 280 239 257 219 205 242 225 246 230 239 267 210 264 271 291 278 249 252 156 230 275 351 352 318 287 282 280 275 273 275 280 277 270 259 259 262 263 263 269
183 184 229 248 246 246 244 227 199 213 240 218 212 246 217 248 212 252 271 264 23 248 154 148 248 334 335 347 348 346 339 308 281 276 274 267 270 280 263 263 270 267 268 261
169 196 207 199 208 217 221 203 210 219 211 225 220 242 240 215 216 250 266 239 238 339 275 224 80 310 355 6 2 359 2 353 310 277 262 243 256 243 251 271 275 272 263 258
187 185 234 213 211 223 209 211 197 214 231 277 304 307 271 231 193 241 248 257 332 257 238 63 285 334 350 5 12 6 5 16 12 328 258 224 210 238 254 271 281 265 245 240
192 199 226 222 227 236 238 242 249 259 280 292 296 273 235 263 221 205 318 286 259 184 76 258 323 347 351 358 3 4 8 10 11 358 329 285 220 235 259 269 279 258 235 227
221 225 242 244 277 257 250 254 264 275 290 280 217 246 236 236 209 181 215 248 244 132 159 296 353 354 350 340 350 352 355 349 358 355 353 327 304 253 276 287 282 268 224 224
216 236 229 239 264 257 262 259 277 163 304 253 298 213 235 136 238 212 188 209 198 163 198 319 339 347 337 336 332 340 340 328 303 302 343 335 321 304 284 299 307 315 245 227